Zurück zum Katalog

DELTA 1 DEB

AktivSSO
NORAD 7079·DEBRIS·🇺🇸 United States

Gestartet Nov 6, 1973 von Vandenberg Space Force Base

Loading…

Nächste Überflüge (nächste 24 Stunden)

TLE

AktuellSource: Space-Track

Epoche: Sep 14, 2026, 08:56 UTC

1 07079U 73086BX  26257.37262685 -.00000068  00000-0 -19836-3 0  9994
2 07079 101.9261 220.3516 0039628  39.2876 115.1384 12.34180933374086

Verfolge DELTA 1 DEB in Echtzeit mit AllMySat

Download on the App Store